Regional Weather Roundup
Issued by NWS

Home | Current Version | Previous Version | Graphics & Text | Print | Product List | Glossary Off
Versions: 1 2 3 4 5 6 7 8 9 10 11 12 13 14 15 16 17 18 19 20 21 22 23 24 25 26 27 28 29 30 31 32 33 34 35 36 37 38 39 40 41 42 43 44 45 46 47 48 49 50

000
ASUS43 KDMX 261806
RWRIA

WEATHER ROUNDUP FOR IOWA
NATIONAL WEATHER SERVICE DES MOINES IA
100 PM CDT FRI MAY 26 2017

NOTE: "FAIR" INDICATES FEW OR NO CLOUDS BELOW 12,000 FEET WITH NO
SIGNIFICANT WEATHER AND/OR OBSTRUCTIONS TO VISIBILITY.

* - THESE STATIONS ARE NOT NWS STATIONS...THUS NOT UNDER NWS
QUALITY CONTROL.  THEY ALSO DO NOT REPORT WEATHER SUCH
AS PRECIPITATION OR FOG.

IAZ001>003-012>014-020>022-031>034-043>046-261900-
   NORTHWEST IOWA

CITY           SKY/WX    TMP DP  RH WIND       PRES   REMARKS
CARROLL *      SUNNY     77  59  53 NW12      29.77S
DENISON *      CLOUDY    75  57  53 N13       29.80S
LE MARS *      SUNNY     73  50  43 N10G20    29.81S
ORANGE CITY *  SUNNY     72  52  49 NW12G21   29.81R
SHELDON *      SUNNY     73  46  38 NW15      29.78S
SIOUX CITY     SUNNY     73  52  47 N17G24    29.81S
6HR MIN TEMP:  58; 6HR MAX TEMP:  73;

SPENCER        SUNNY     76  54  46 NW7       29.78R
6HR MIN TEMP:  58; 6HR MAX TEMP:  76;

STORM LAKE *   CLOUDY    73  54  49 NW10G18   29.79R
$$

IAZ055>058-069>071-079>083-090>094-261900-
   SOUTHWEST IOWA

CITY           SKY/WX    TMP DP  RH WIND       PRES   REMARKS
ATLANTIC *     SUNNY     77  61  57 N8G14     29.77S
AUDUBON *      SUNNY     77  61  57 N8        29.78S
CLARINDA *     SUNNY     79  61  53 NE9       29.78S HX  80
COUNCIL BLFS * SUNNY     75  59  57 N8G16     29.80R
CRESTON *      SUNNY     75  61  60 NW7       29.78S
HARLAN  *      CLOUDY    77  57  50 N12G21    29.81S
LAMONI         SUNNY     77  63  61 NE10      29.76S
6HR MIN TEMP:  59; 6HR MAX TEMP:  77; 6HR PCP:  0.10;

RED OAK *      SUNNY     79  61  53 N9        29.77S HX  80
SHENANDOAH *   SUNNY     79  59  50 NW7G14    29.77S HX  80
$$

IAZ047>049-059>061-072>074-084-261900-
   CENTRAL IOWA

CITY           SKY/WX    TMP DP  RH WIND       PRES   REMARKS
AMES           SUNNY     73  60  63 VRB3      29.76R
6HR MIN TEMP:  59; 6HR MAX TEMP:  73;

ANKENY *       SUNNY     73  59  60 CALM      29.77S
BOONE *        SUNNY     73  61  64 N7        29.76S
CHARITON *     MOSUNNY   73  63  68 N7        29.76F
DES MOINES     MOSUNNY   75  61  61 VRB6      29.77R
6HR MIN TEMP:  60; 6HR MAX TEMP:  75; 6HR PCP:  0.04;

GRINNELL*      PTSUNNY   66  60  81 N3        29.79R
KNOXVILLE *    SUNNY     70  61  73 CALM      29.76S
MARSHALLTOWN   CLOUDY    69  58  67 VRB3      29.76S
6HR MIN TEMP:  60; 6HR MAX TEMP:  69; 6HR PCP: TRACE;

NEWTON *       CLOUDY    70  59  68 NE6       29.76S
PELLA *        CLOUDY    71  60  68 NE3       29.77S
PERRY *          N/A     75  57  53 CALM      29.77R
$$

IAZ004>006-015-016-023>025-035-036-261900-
   NORTH CENTRAL IOWA

CITY           SKY/WX    TMP DP  RH WIND       PRES   REMARKS
ALGONA *       SUNNY     72  57  60 NW5       29.77S
CLARION *      SUNNY     72  57  60 N5        29.77S
ESTHERVILLE    SUNNY     72  56  57 NW13      29.76S
6HR MIN TEMP:  57; 6HR MAX TEMP:  73;

FORT DODGE *   SUNNY     73  59  60 CALM      29.78S
MASON CITY     MOSUNNY   69  56  62 VRB3      29.79R
6HR MIN TEMP:  56; 6HR MAX TEMP:  70;

FOREST CITY *    N/A     77  48  36 SE3       29.78S
WEBSTER CITY * SUNNY     73  57  56 E3        29.75S
IOWA FALLS *     N/A     73  56  56 CALM      29.78S
$$

IAZ007>011-017>019-026>030-037>042-050>054-066-261900-
   NORTHEAST IOWA

CITY           SKY/WX    TMP DP  RH WIND       PRES   REMARKS
CEDAR RAPIDS   LGT RAIN  61  61 100 SE7       29.76F FOG
6HR MIN TEMP:  58; 6HR MAX TEMP:  63; 6HR PCP:  0.59;

CHARLES CITY * CLOUDY    66  57  72 S14       29.79S
CLINTON *      HVY RAIN  62  60  93 CALM      29.82R FOG
DECORAH *      CLOUDY    63  57  82 CALM      29.81R
DUBUQUE        RAIN      60  58  92 E6        29.81F FOG
6HR MIN TEMP:  59; 6HR MAX TEMP:  64; 6HR PCP:  0.24;

MONTICELLO *   LGT RAIN  61  59  94 E13       29.78F
OELWEIN *      CLOUDY    63  57  82 SE6       29.82R
WATERLOO       CLOUDY    64  56  75 E7        29.79R
6HR MIN TEMP:  60; 6HR MAX TEMP:  64; 6HR PCP: TRACE;

$$

IAZ064-065-067-068-078-261900-
   EAST CENTRAL IOWA

CITY           SKY/WX    TMP DP  RH WIND       PRES   REMARKS
DAVENPORT      RAIN      61  59  93 E10       29.76F
6HR MIN TEMP:  60; 6HR MAX TEMP:  68; 6HR PCP:  0.54;

IOWA CITY      LGT RAIN  64  60  87 NE7       29.78R
6HR MIN TEMP:  61; 6HR MAX TEMP:  66; 6HR PCP:  0.36;

MT. PLEASANT * CLOUDY    69  58  67 CALM      29.76R
MUSCATINE *    CLOUDY    63  61  94 E7        29.74F
QUAD CITIES    HVY RAIN  62  59  90 E7        29.75F FOG
6HR MIN TEMP:  59; 6HR MAX TEMP:  73; 6HR PCP:  0.32;

$$

IAZ062-063-075>077-085>089-095>099-261900-
   SOUTHEAST IOWA

CITY           SKY/WX    TMP DP  RH WIND       PRES   REMARKS
BURLINGTON     TSTM      64  62  93 NE5       29.76S FOG
6HR MIN TEMP:  60; 6HR MAX TEMP:  67; 6HR PCP:  0.05;

FAIRFIELD *    PTSUNNY   66  61  82 NW9       29.76R
FORT MADISON * HVY RAIN  66  64  94 E6        29.76S
KEOKUK *       CLOUDY    72  64  78 N10       29.74S
OSKALOOSA *    PTSUNNY   67  61  82 W7        29.78S
OTTUMWA        PTSUNNY   69  63  81 NW5       29.76S
6HR MIN TEMP:  59; 6HR MAX TEMP:  69; 6HR PCP:  0.34;

WASHINGTON *   CLOUDY    63  63 100 N6        29.76S
$$

ABBREVIATIONS USED IN REMARKS
   TC - TEMPERATURES IN CELSIUS
  WCI - WIND CHILL INDEX
   HX - HEAT INDEX
  VSB - VISIBILITY
$$





USA.gov is the U.S. government's official web portal to all federal, state and local government web resources and services.